www.pogodaiklimat.ru

Погода и климат >> Архив погоды >> Россия >> Красноярский край >> Снежногорск


ПОГОДА в Снежногорске

  • Прогноз погоды в Снежногорске
  • Монитор погоды в Снежногорске

АРХИВ ПОГОДЫ в Снежногорске

Время (UTC), дата Ветер
(напр.,м/с)
 
Видим.   Явления Облачность Т
(С)
Тd
(С)
f
(%)
Тe
(С)
Тes
(С)
Комфортность P
(гПа)
Po
(гПа)
Тmin
(С)
Tmax
(С)
R
(мм)
R24
(мм)
S
(см)
12 12.04 Ю 2 20 км {снег, метель} 10/0 2000 м
[Ac trans Cs]
-10.0 -16.6 58 -14 -14 1015.7 1003.4 -9.6 0.3
15 12.04 В 1 10 км 10/0 2000 м
[Ac lent Ci fib]
-11.5 -17.7 60 -14 -14 1013.0 1000.6
18 12.04 В 2 10 км 10/0 2000 м
[Ac trans Ci sp]
-12.1 -19.3 55 -17 -17 1010.1 997.7
21 12.04 В 3 10 км 10/0 2000 м
[Ac trans Ci sp]
-12.9 -19.0 60 -19 -19 1006.7 994.4
00 13.04 В 3 20 км 10/0 2000 м
[Ac trans Cs]
-13.5 -19.6 60 -20 -19 1005.0 992.6 -13.6 143
03 13.04 В 3 20 км 10/0 2000 м
[Ac trans Ci sp]
-11.9 -18.1 60 -18 -16 1003.8 991.6
06 13.04 В 4 20 км 10/0
[Ci sp]
-10.0 -16.6 58 -17 -13 1003.1 991.0
09 13.04 СВ 3 20 км 10/0
[Ci sp]
-7.6 -14.1 60 -13 -10 1002.5 990.5
12 13.04 СВ 2 20 км 10/0 2000 м
[Ac und]
-12.4 -18.6 60 -17 -17 1002.2 991.0 -7.4
15 13.04 В 2 20 км 10/0 2000 м
[Ac und]
-12.5 -17.7 65 -17 -17 1003.4 991.2
18 13.04 В 1 20 км 10/0 2000 м
[Ac und]
-12.1 -17.3 65 -14 -14 1003.1 990.9
21 13.04 СВ 3 10 км 10/0 2000 м
[Ac und]
-12.3 -17.5 65 -18 -18 1002.8 990.6
00 14.04 В 2 20 км 10/0 2000 м
[Ac und]
-10.7 -16.0 65 -15 -15 1003.1 991.0 -12.5 139
03 14.04 В 3 20 км 8/0 2000 м
[Ac trans]
-10.0 -15.9 62 -16 -14 1003.7 991.6
06 14.04 СВ 1 20 км 8/0 2000 м
[Ac trans]
-9.0 -16.3 55 -11 -7 1004.9 992.8
09 14.04 СЗ 4 20 км 8/0 2000 м
[Ac trans]
-6.8 -13.0 61 -13 -12 1006.2 994.2
12 14.04 СЗ 5 20 км позёмок 10/0 2000 м
[Ac und]
-9.0 -14.5 64 -17 -16 1008.2 996.1 -6.8
15 14.04 СЗ 7
{11}
20 км позёмок 10/0 2000 м
[Ac und]
-12.5 -17.7 65 -22 -22 1009.3 997.1
18 14.04 СЗ 5
{11}
10 км позёмок 10/0 2000 м
[Ac und]
-15.0 -20.1 65 -24 -24 1010.5 998.1
21 14.04 СЗ 3 10 км {метель} 10/0 2000 м
[Ac und]
-16.5 -21.5 65 -23 -23 1010.8 998.3
00 15.04 СЗ 4 20 км 3/0
[Cs]
-18.5 -23.4 65 -27 -27 1011.8 999.2 -18.5 139
03 15.04 СЗ 3 20 км ясно -17.2 -22.2 65 -24 -21 1012.5 999.9 -19.4
06 15.04 З 3 20 км ясно -14.6 -19.7 65 -21 -16 1013.0 1000.6
09 15.04 СЗ 1 20 км ясно -13.1 -19.2 60 -15 -10 1014.1 1001.7
12 15.04 СЗ 1 20 км ясно -14.1 -20.2 60 -17 -16 1014.5 1002.1 -13.1
15 15.04 штиль 0 20 км ясно -15.6 -21.6 60 -16 -16 1013.9 1001.4
18 15.04 СВ 3 10 км ясно -19.1 -24.9 60 -27 -27 1013.7 1001.0
21 15.04 В 2 10 км ясно -20.3 -26.1 60 -26 -26 1012.8 1000.1
00 16.04 В 2 20 км 3/0
[Ci fib]
-21.8 -27.5 60 -28 -27 1013.5 1000.7 -22.1 138
03 16.04 В 2 20 км 10/0
[Cs]
-21.1 -26.8 60 -27 -24 1013.2 1000.4
06 16.04 СВ 2 20 км 10/0
[Cs]
-18.1 -24.0 60 -24 -18 1013.2 1000.6
09 16.04 В 2 20 км 10/0
[Cs]
-16.8 -22.7 60 -22 -18 1013.4 1000.9
12 16.04 СВ 3 20 км 4/0
[Ci fib]
-16.1 -22.1 60 -23 -22 1013.5 1001.0 -16.1
15 16.04 В 2 20 км 3/0
[Ci fib]
-17.7 -23.6 60 -23 -23 1013.7 1001.1
18 16.04 В 2 10 км 4/0
[Ci fib]
-18.9 -23.8 65 -25 -25 1013.3 1000.7
21 16.04 СВ 3 10 км ясно -20.5 -25.4 65 -28 -28 1013.2 1000.5
00 17.04 СВ 4 20 км 4/0
[Ci fib]
-21.1 -25.9 65 -30 -30 1013.2 1000.4 -21.6 138
03 17.04 СВ 3 20 км 3/0
[Ci fib]
-19.5 -24.4 65 -27 -24 1012.9 1000.2
06 17.04 СВ 4 20 км 3/0
[Ci fib]
-16.5 -22.4 60 -25 -20 1012.3 999.8
09 17.04 СВ 3 20 км 3/0
[Ci fib]
-13.7 -19.8 60 -20 -16 1011.8 999.4
12 17.04 СВ 3 20 км ясно -14.0 -19.1 65 -20 -20 1011.8 999.4 -13.7
15 17.04 СВ 2 20 км 3/0
[Ci fib]
-15.0 -20.1 65 -20 -20 1011.1 998.7
18 17.04 СВ 3 10 км ясно -17.0 -22.0 65 -24 -24 1009.5 997.0
21 17.04 СВ 3 10 км ясно -18.5 -23.4 65 -26 -26 1008.5 995.9
00 18.04 СВ 3 20 км 3/0
[Ci fib]
-19.0 -23.9 65 -26 -26 1007.5 994.9 -19.0 138
03 18.04 СВ 3 20 км 8/0
[Cs]
-17.2 -23.1 60 -24 -21 1006.1 993.5
06 18.04 В 2 20 км 10/0
[Ac trans Ci sp]
-14.1 -20.2 60 -19 -15 1004.9 992.5
09 18.04 В 3 20 км 10/0
[Ac und]
-11.5 -17.7 60 -17 -16 1005.0 992.7
12 18.04 С 1 20 км в посл. час снег 10/0 2000 м
[Ac und Cs]
-10.7 -16.0 65 -13 -12 1005.8 993.6 -10.7 0.0
15 18.04 СЗ 3 10 км слаб. снег 10/0
[Ac As]
-13.1 -18.3 65 -19 -19 1006.4 994.0
18 18.04 СЗ 3 10 км слаб. снег 10/0
[Ac trans Cs]
-15.6 -20.7 65 -22 -22 1006.6 994.1
21 18.04 СЗ 4 10 км слаб. снег 10/0 2000 м
[Cs]
-17.2 -22.2 65 -25 -25 1007.1 994.5
00 19.04 СЗ 4 20 км {снег} 3/0
[Ci fib]
-18.8 -23.7 65 -27 -27 1008.1 995.5 -18.8 0.4 137
03 19.04 З 1 20 км ясно -16.7 -21.7 65 -19 -14 1008.6 996.2

 

Местоположение метеостанции Снежногорск (Красноярский край, Россия): широта 68.10 долгота 87.77 высота над уровнем моря 94 м.

В архиве по умолчанию представлена погода в Снежногорске за последнюю неделю. Архивные данные за месяц целиком и за предыдущие месяцы, начиная с января 2011 года, Вы можете получить, выбрав интересующий диапазон дат из раскрывающегося списка и нажав кнопку "Ввод!".


*Определитесь, кто Вы:
робот инопланетянин человек

Внимание! Время в таблицах - всемирное. Для получения местного времени необходимо прибавить поправку, которая равна 7 ч.

Смотрите также архив погоды в соседних городах и на ближайших метеорологических станциях:

Погода в Горбиачине (Красноярский край, Россия) (69 км)
Погода в Игарке (Красноярский край, Россия) (86 км)
Погода в Потапово (Красноярский край, Россия) (89 км)
Погода в Светлогорске (Красноярский край, Россия) (131 км)
Погода в Норильске (Красноярский край, Россия) (138 км)
Погода в Курейке (Красноярский край, Россия) (183 км)
Погода в Советской Речке (Красноярский край, Россия) (221 км)
Погода в Туруханске (Красноярский край, Россия) (258 км)
Погода в Агате (Эвенкия, Россия) (278 км)
Погода в Карауле (Красноярский край, Россия) (286 км)

Пояснения к столбцам:

Ветер - указаны скорость ветра в м/с - средняя за 10 мин, порывы в срок и между сроками (в фигурных скобках) и направление, откуда дует ветер: С - северный, СВ - северо-восточный, В - восточный, ЮВ - юго-восточный, Ю - южный, ЮЗ - юго-западный, З - западный, СЗ - северо-западный.
Видимость - горизонтальная дальность видимости в метрах или километрах. При видимости от 1 до 10 км при отсутствии осадков обычно наблюдается дымка, при ухудшении видимости до 1 км и менее - туман. В сухую погоду видимость может ухудшаться дымом, пылью или мглою.
Явления - указаны атмосферные явления, наблюдавшиеся в срок или в последний час перед сроком; фигурными скобками обозначены явления, наблюдавшиеся между сроками (за 1-3 часа до срока); квадратными скобками обозначены град или гололедные отложения с указанием их диаметра в мм.
Облачность - указаны через наклонную черту общая и нижняя облачность в баллах и высота нижней границы облаков в метрах; квадратными скобками обозначены формы облаков: Ci - перистые, Cs - перисто-слоистые, Cc - перисто-кучевые, Ac - высококучевые, As - высокослоистые, Sc - слоисто-кучевые, Ns - слоисто-дождевые, Cu - кучевые, Cb - кучево-дождевые. Подробнее классификацию облаков см. в Атласе облаков (PDF).
T - Температура воздуха - температура, измеренная на высоте 2 м над землей.
Td - Температура точки росы - температура, при понижении до которой содержащийся в воздухе водяной пар достигнет насыщения.
f - Относительная влажность воздуха - влажноcть воздуха, измеренная на высоте 2 м над землей.
Te - Эффективная температура - температура, которую ощущает одетый по сезону человек в тени. Характеристика душности погоды. При расчете учитывается влияние влажности воздуха и скорости ветра на теплоощущения человека.
Tes - Эффективная температура на солнце - температура, которую ощущает человек, с поправкой на солнечный нагрев. Характеристика знойности погоды. Зависит от высоты солнца над горизонтом, облачности и скорости ветра. Ночью, в пасмурную погоду, а также при ветре 12 м/с и более поправка равна нулю.
P - Атмосферное давление - приведенное к уровню моря атмосферное давление.
Po - Атмосферное давление - измеренное на уровне метеостанции атмосферное давление.
Tmin - Минимальная температура - минимум температуры воздуха на высоте 2 м над землей.
Tmax - Максимальная температура - максимум температуры воздуха на высоте 2 м над землей.
R - Количество осадков - Количество выпавших осадков за период времени, мм. При наведении курсора мыши на число - период времени, за который выпало указанное количество осадков.
R24 - Количество осадков - Количество выпавших осадков за 24 часа, мм.
S - Снежный покров - Высота снежного покрова, см. При наведении курсора мыши на число - состояние снежного покрова и степень покрытия местности в баллах.